Location: Hermaringen
(48.5952°N, 10.2585°E)
Time: 01:47:03
(UTC+00:00)

Vanguard 3 - Pass Details

Date: 23 February 2026
Orbit: 507 x 3205 km, 33.4° (Epoch: 15 March)

Event Time Altitude Azimuth Distance (km) Brightness Sun altitude
Rises 13:15:22 0° 225° (SW) 6,727 13.0 27.4°
Reaches altitude 10° 13:21:15 10° 215° (SW) 5,342 13.1 27.0°
Maximum altitude 13:32:21 27° 167° (SSE) 3,227 11.1 26.0°
Drops below altitude 10° 13:39:54 10° 115° (ESE) 3,549 10.4 25.3°
Sets 13:42:52 0° 102° (ESE) 4,173 10.6 25.0°
